ARES1 YSSY-YSBK

Flight info

Callsign ARES1
Flight time 0h 3m
Altitude 2500
Route YSSY/16R DLPT GRB PNP CSTH
Aircraft S76/M-G/L

Departure

Time 2026-05-09 04:31
Airport Sydney Kingsford Smith International Airport (YSSY)

Arrival

Time 2026-05-09 04:35
Airport Sydney Bankstown Airport (YSBK)
Time Latitude Longitude Altitude Speed Heading
2026-05-09 04:31 -33.99118 151.06670 500 ft 122 kts 293°
2026-05-09 04:31 -33.98663 151.05623 704 ft 158 kts 296°
2026-05-09 04:31 -33.98136 151.04429 879 ft 158 kts 282°
2026-05-09 04:32 -33.97826 151.03084 822 ft 170 kts 275°
2026-05-09 04:32 -33.97777 151.01642 693 ft 170 kts 257°
2026-05-09 04:32 -33.98072 151.00262 643 ft 171 kts 254°
2026-05-09 04:32 -33.97330 150.99285 866 ft 182 kts 318°
2026-05-09 04:33 -33.96320 150.98219 793 ft 185 kts 343°
2026-05-09 04:33 -33.95285 150.97425 1271 ft 149 kts 300°
2026-05-09 04:33 -33.94723 150.96490 2038 ft 155 kts 300°
2026-05-09 04:33 -33.94270 150.95158 1988 ft 165 kts 314°
2026-05-09 04:34 -33.93038 150.94726 2163 ft 181 kts 11°
2026-05-09 04:34 -33.92054 150.95960 1642 ft 188 kts 69°
2026-05-09 04:34 -33.91802 150.97633 760 ft 166 kts 92°
2026-05-09 04:34 -33.91898 150.98868 854 ft 77 kts 131°
2026-05-09 04:35 -33.92066 150.99118 546 ft 33 kts 144°
2026-05-09 04:35 -33.92084 150.99155 308 ft 28 kts 171°
2026-05-09 04:35 -33.92111 150.99172 136 ft 22 kts 143°
2026-05-09 04:35 -33.92119 150.99180 101 ft 2 kts 131°
2026-05-09 04:36 -33.92114 150.99180 40 ft 4 kts 150°
2026-05-09 04:36 -33.92117 150.99182 34 ft 0 kts 155°